GALAXY 32 (G-32)

Last updated on Thu Dec 18 2025 00:02:52 GMT+0000 (Coordinated Universal Time)

1 54244U 22153B 25351.18054701 -.00000150 00000+0 00000+0 0 9999 2 54244 0.0104 339.7375 0002590 338.8221 101.4983 1.00271531 11318
UTC large
Height (km)
Speed (km/s)
/
Latitude / Longitude
Inclination (degrees)
Orbital Period (minutes)
Azimuth
Elevation
Range (km)
Doppler Factor

Next 0 passes for location: London (51.5072 / 0.1276)

Sorry there are no passes over London.